This is the latest recevied weather packets stored in our database for station/object W1LBM. If no packets are shown the sender has not sent any weather packets the latest 10 day(s).
| Time | Temp. | Humidity | Pressure | Rain* | Wind** | Luminosity | Snow |
|---|---|---|---|---|---|---|---|
| 1777673869 | 16.67° C | 33% | 1012.2 hPa | 0 mm | - | 49 W/m² | - |
| 1777673566 | 16.67° C | 33% | 1012.2 hPa | 0 mm | - | 46 W/m² | - |
| 1777673264 | 16.67° C | 32% | 1012.3 hPa | 0 mm | - | 35 W/m² | - |
| 1777672961 | 17.22° C | 35% | 1012.4 hPa | 0 mm | - | 56 W/m² | - |
| 1777672658 | 17.22° C | 34% | 1012.1 hPa | 0 mm | - | 54 W/m² | - |
| 1777672353 | 17.22° C | 34% | 1012.2 hPa | 0 mm | - | 67 W/m² | - |
| 1777672049 | 16.67° C | 33% | 1012.2 hPa | 0 mm | - | 137 W/m² | - |
| 1777671745 | 16.67° C | 33% | 1012.3 hPa | 0 mm | - | 106 W/m² | - |
| 1777671441 | 16.67° C | 34% | 1012 hPa | 0 mm | - | 39 W/m² | - |
| 1777671137 | 16.67° C | 34% | 1012.1 hPa | 0 mm | - | 118 W/m² | - |
| 1777670834 | 16.67° C | 33% | 1012 hPa | 0 mm | - | 44 W/m² | - |
| 1777670531 | 17.22° C | 33% | 1012 hPa | 0 mm | - | 146 W/m² | - |
| 1777670227 | 17.22° C | 33% | 1011.9 hPa | 0 mm | - | 187 W/m² | - |
| 1777669925 | 17.22° C | 33% | 1012.1 hPa | 0 mm | - | 252 W/m² | - |
| 1777669622 | 16.67° C | 34% | 1011.8 hPa | 0 mm | - | 305 W/m² | - |
| 1777669318 | 17.22° C | 35% | 1012.1 hPa | 0 mm | - | 318 W/m² | - |
| 1777669014 | 17.22° C | 33% | 1012 hPa | 0 mm | - | 307 W/m² | - |
| 1777668712 | 16.67° C | 37% | 1011.9 hPa | 0 mm | - | 144 W/m² | - |
| 1777668408 | 16.67° C | 34% | 1011.7 hPa | 0 mm | - | 167 W/m² | - |
| 1777668104 | 16.67° C | 37% | 1011.8 hPa | 0 mm | - | 203 W/m² | - |
| 1777667801 | 16.67° C | 35% | 1011.9 hPa | 0 mm | - | 153 W/m² | - |
| 1777667499 | 16.67° C | 37% | 1011.9 hPa | 0 mm | - | 103 W/m² | - |
| 1777667195 | 16.67° C | 34% | 1012.1 hPa | 0 mm | - | 171 W/m² | - |
| 1777666892 | 16.11° C | 37% | 1011.9 hPa | 0 mm | - | 152 W/m² | - |
| 1777666589 | 16.11° C | 37% | 1011.8 hPa | 0 mm | - | 125 W/m² | - |
* Rain latest hour (hover to see other rain measurements)
** Current wind speed in m/s (hover to see current wind gust speed)